Weather History for KDAN - May, 2013

Change the Weather History Date:

Thursday, May 9, 2013

  Actual Average Record
Temperature  
Mean Temperature 65 °F 64 °F  
Max Temperature 81 °F 76 °F 94 °F (1963)
Min Temperature 48 °F 53 °F 29 °F (1976)
Degree Days  
Heating Degree Days 0 3  
Month to date heating degree days 57 33  
Since 1 July heating degree days 3726 3776  
Cooling Degree Days 0 3  
Month to date cooling degree days 0 19  
Year to date cooling degree days 48 53  
Growing Degree Days 14 (Base 50)    
Moisture  
Dew Point 52 °F    
Average Humidity 66    
Maximum Humidity 96    
Minimum Humidity 36    
Precipitation  
Precipitation 0.00 in 0.12 in 1.04 in (1972)
Month to date precipitation 2.88 0.98  
Year to date precipitation 18.28 14.98  
Snow  
Snow 0.00 in - - ()
Month to date snowfall 0.0  
Since 1 July snowfall 1.7  
Snow Depth 0.00 in    
Sea Level Pressure  
Sea Level Pressure 30.00 in    
Wind  
Wind Speed 4 mph (SW)    
Max Wind Speed 14 mph    
Max Gust Speed -    
Visibility 5 miles    
Events Fog    
T = Trace of Precipitation, MM = Missing Value Source: NWS Daily Summary

Daily Weather History Graph

Daily Weather History Graph

Search for Another Location

Airport or City:

Trip Planner

Search our weather history database for the weather conditions in past years. The results will help you decide how hot, cold, wet, or windy it might be!

Date:

Astronomy

May. 09, 2013 Rise Set
Actual Time 6:15 AM EDT 8:12 PM EDT
Civil Twilight 5:47 AM EDT 8:41 PM EDT
Nautical Twilight 5:12 AM EDT 9:15 PM EDT
Astronomical Twilight 4:35 AM EDT 9:52 PM EDT
Moon 5:57 AM EDT (5/9) 8:06 PM EDT (5/9)
Length of Visible Light 14h 54m
Length of Day
13h 57m
Waning Crescent, 0% of the Moon is Illuminated
May 9
Waning Crescent
May 9
New
May 18
First Quarter
May 25
Full
May 31
Last Quarter

Hourly Weather History & Observations

Time (EDT) Temp. Heat Index Dew Point Humidity Pressure Visibility Wind Dir Wind Speed Gust Speed Precip Events Conditions
12:53 AM 51.1 °F - 48.9 °F 92% 29.99 in 0.2 mi SSW 3.5 mph - N/A Fog Fog
1:44 AM 51.8 °F - 48.2 °F 88% 30.00 in 0.5 mi Calm Calm - N/A Fog Fog
1:51 AM 51.8 °F - 48.2 °F 88% 30.00 in 0.2 mi Calm Calm - N/A Fog Fog
1:53 AM 51.1 °F - 48.0 °F 89% 29.99 in 0.2 mi Calm Calm - N/A Fog Fog
2:19 AM 51.8 °F - 48.2 °F 88% 30.00 in 0.2 mi WSW 4.6 mph - N/A Fog Fog
2:44 AM 51.8 °F - 48.2 °F 88% 29.99 in 0.2 mi Calm Calm - N/A Fog Fog
2:53 AM 51.1 °F - 50.0 °F 96% 29.97 in 0.2 mi Calm Calm - N/A Fog Fog
3:10 AM 51.8 °F - 50.0 °F 94% 29.99 in 0.2 mi Calm Calm - N/A Fog Fog
3:33 AM 51.8 °F - 50.0 °F 94% 29.99 in 0.2 mi Calm Calm - N/A Fog Fog
3:53 AM 51.1 °F - 50.0 °F 96% 29.97 in 0.2 mi Calm Calm - N/A Fog Fog
4:53 AM 51.1 °F - 48.9 °F 92% 29.97 in 0.2 mi Calm Calm - N/A Fog Fog
5:53 AM 50.0 °F - 48.0 °F 93% 29.98 in 0.2 mi SSW 3.5 mph - 0.01 in Fog Fog
6:48 AM 48.2 °F - 46.4 °F 93% 30.02 in 0.8 mi SW 4.6 mph - N/A   Mist
6:53 AM 48.9 °F - 46.9 °F 93% 30.01 in 1.0 mi SW 5.8 mph - N/A   Mist
7:00 AM 48.2 °F - 48.2 °F 100% 30.03 in 3.0 mi SW 4.6 mph - N/A   Mostly Cloudy
7:10 AM 50.0 °F - 48.2 °F 94% 30.03 in 9.0 mi SW 5.8 mph - N/A   Scattered Clouds
7:53 AM 54.0 °F - 52.0 °F 93% 30.03 in 10.0 mi WSW 5.8 mph - N/A   Clear
8:53 AM 60.1 °F - 55.0 °F 83% 30.03 in 10.0 mi West 4.6 mph - N/A   Clear
9:53 AM 66.0 °F - 55.9 °F 70% 30.03 in 10.0 mi West 5.8 mph - N/A   Clear
10:53 AM 69.1 °F - 57.9 °F 68% 30.03 in 10.0 mi West 9.2 mph - N/A   Clear
11:53 AM 73.0 °F - 57.9 °F 59% 30.03 in 10.0 mi WSW 10.4 mph - N/A   Partly Cloudy
1:53 PM 78.1 °F - 57.9 °F 50% 30.02 in 10.0 mi Variable 4.6 mph - N/A   Partly Cloudy
2:53 PM 78.1 °F - 55.0 °F 45% 30.00 in 10.0 mi Variable 6.9 mph - N/A   Clear
4:53 PM 80.1 °F - 52.0 °F 38% 29.98 in 10.0 mi Calm Calm - N/A   Clear
5:53 PM 80.1 °F 79.9 °F 53.1 °F 39% 29.97 in 10.0 mi Calm Calm - N/A   Scattered Clouds
6:53 PM 78.1 °F - 55.9 °F 46% 29.98 in 10.0 mi WSW 6.9 mph - N/A   Partly Cloudy
7:53 PM 71.1 °F - 57.9 °F 63% 29.99 in 10.0 mi SSW 3.5 mph - N/A   Clear
8:53 PM 69.1 °F - 55.9 °F 63% 30.01 in 10.0 mi ESE 3.5 mph - N/A   Clear
9:53 PM 63.0 °F - 57.0 °F 81% 30.03 in 10.0 mi East 3.5 mph - N/A   Clear
10:53 PM 61.0 °F - 55.9 °F 83% 30.03 in 10.0 mi Calm Calm - N/A   Clear
11:53 PM 61.0 °F - 57.0 °F 87% 30.03 in 10.0 mi Calm Calm - N/A   Scattered Clouds